Find Yaogan 31 hao 04 zu 02 xing

NORAD ID: 47856 Int'l Des: 2021-020 Owner: ZLZB Country: CN Constellation: yaogan operational
LEO

Live Position

Loading 3D Globe...

About Yaogan 31 hao 04 zu 02 xing

Description loading...

Upcoming Passes

Passes for default location (London). Set your location on the main map for personalized predictions.

Altitude History

Loading altitude history...

Two-Line Element Set

1 47856U 21020C 26105.94981946 -.00000049 00000-0 63792-4 0 9994
2 47856 63.4052 58.7147 0169431 0.2945 359.8151 13.45443859250036
Epoch: Apr 15, 2026 • Age: 7 hours

Current Status

Altitude 1184.0 km
Velocity 7.22 km/s
Sub-Earth Point -44.15°S, 16.91°W
Launch Date Mar 13, 2021
Age 5 years
Type military

Technical Details

Classification Payload
Mass 500.00 kg
Dry Mass 500.00 kg
Total Mass 500.00 kg
Length 0.50 m
Diameter 0.50 m
Span 1.00 m
Shape Box + 2 Pan
Manufacturer DFHZ
Phase Status In Orbit
Owner/State ZLZB/CN

Most Searched